Temp
39 38 38 40 41 40 39 39 39 39 39 38 38 38 38 37 37 37 36 36 36 36 36 35 35 34 34 32 31 30 29 28 27 27 27 28 28 29 28 28 28 26 26 25
39 38 40 41 40 39 39 39 40 40 39 38 39 38 39 38 37 38 37 37 36 36 36 36 35 35 34 33 32 30 29 28 27 28 28 29 29 30 29 29 28 27 26 25
38 40 41 40 39 39 40 40 39 38 39 40 39 30 38 38 38 38 38 38 37 37 37 36 35 35 34 33 32 31 29 28 27 28 28 28 28 28 29 29 28 27 27 26
39 40 40 39 38 39 39 40 39 39 39 34 41 37 37 38 38 37 38 38 38 38 37 37 36 35 35 34 33 31 29 28 28 27 29 29 29 30 30 30 28 27 25 25
38 39 39 39 39 40 39 40 39 39 39 40 39 40 36 39 38 38 38 38 38 38 38 37 37 35 35 34 33 32 30 29 28 27 28 29 28 30 30 30 27 27 25 25
39 41 39 39 40 40 40 39 39 40 40 39 39 39 40 40 40 40 39 39 39 39 39 38 37 36 36 35 34 33 31 29 28 28 27 28 29 29 31 30 29 29 28 26
38 38 40 39 38 40 40 38 38 38 39 38 41 39 41 41 41 41 40 39 39 39 39 38 38 37 36 36 35 34 32 30 28 28 28 27 27 28 28 29 29 29 29 27
39 38 39 40 38 40 39 39 38 37 38 39 40 39 40 42 41 41 41 40 39 39 39 39 38 37 37 36 35 34 33 31 29 28 27 27 27 28 28 28 30 30 29 28
38 38 40 40 40 39 39 39 41 39 40 40 41 41 42 42 41 40 40 40 39 39 39 38 39 38 37 36 35 35 34 32 30 29 28 27 27 27 29 29 28 29 29 28
39 37 39 40 39 40 39 41 39 40 36 36 40 39 40 40 39 40 40 40 40 39 39 39 38 38 37 37 36 35 34 33 31 31 29 28 27 27 28 28 28 29 28 27
39 38 38 39 38 39 39 38 39 40 40 39 38 39 41 39 39 40 40 40 40 40 39 39 39 38 38 37 37 36 35 34 32 31 30 29 28 27 27 28 27 27 27 26
38 38 37 38 40 41 40 40 40 39 37 39 39 39 41 40 40 40 39 40 40 40 40 40 40 38 38 37 37 36 35 34 33 31 30 29 28 28 28 28 27 27 26 25
38 37 36 38 40 40 38 39 40 41 41 39 39 39 40 40 39 38 38 38 39 39 39 40 40 39 38 37 37 36 35 34 33 31 30 30 29 28 29 28 28 27 25 25
34 37 37 37 38 39 38 38 39 40 39 39 40 39 39 38 38 38 38 37 37 38 38 38 38 39 38 36 35 35 35 34 33 32 30 30 29 29 29 29 28 27 25 25
37 36 37 38 39 38 38 39 39 38 39 39 40 40 38 38 37 37 38 37 37 38 39 39 38 37 37 35 34 33 33 33 33 31 31 30 29 29 29 29 27 26 25 24
38 36 37 33 38 38 37 39 39 39 39 40 40 39 40 39 38 37 37 36 36 36 38 39 39 38 37 35 33 32 31 31 31 30 30 30 29 28 28 27 26 25 24 24
35 36 35 33 35 37 36 38 39 39 40 39 38 39 39 38 36 36 36 36 35 36 36 36 38 39 39 38 34 33 31 30 30 30 29 29 28 27 27 26 24 22 23 22
35 35 35 21 24 32 37 39 39 39 39 39 39 38 37 37 37 36 35 35 35 35 36 36 37 38 39 39 38 34 32 30 29 29 29 28 27 26 24 23 22 23 23 25
36 35 34 33 32 25 28 37 37 37 37 39 38 37 37 36 37 35 35 35 35 35 36 36 36 36 36 37 37 34 32 30 29 28 28 27 24 21 20 20 18 19 20 21
26 34 33 33 32 29 32 30 33 38 35 36 36 36 36 37 36 34 34 35 35 35 35 35 34 35 34 34 35 33 32 30 29 28 25 22 23 22 22 23 24 19 19 20
20 24 30 31 32 34 31 30 34 27 31 34 35 33 34 34 34 34 34 34 35 34 34 34 33 32 32 32 32 31 30 29 23 22 21 22 22 23 24 21 21 19 18 19
21 19 20 31 32 31 34 34 33 31 33 32 33 33 32 33 33 34 34 34 34 34 34 34 32 31 31 31 31 30 28 22 21 21 21 21 22 20 20 20 19 18 18 18
30 28 30 29 26 20 32 32 33 33 32 32 32 33 33 33 33 34 34 34 34 34 33 33 33 28 27 27 28 26 21 21 21 22 22 22 21 20 20 19 18 17 17 18
19 22 28 31 26 23 32 33 33 33 32 33 33 33 33 33 34 34 34 34 34 34 33 32 31 29 25 24 25 23 21 21 20 21 22 22 22 21 20 19 19 18 17 19
26 18 22 30 32 32 32 32 32 31 32 32 32 32 32 32 33 33 34 33 33 33 32 31 30 29 26 24 23 22 21 21 21 21 22 23 23 20 19 19 19 19 19 20
30 24 26 30 27 28 29 31 31 31 31 31 32 32 32 32 32 32 33 33 33 32 31 29 28 27 26 25 24 22 21 21 21 23 24 24 23 19 19 18 18 19 19 20
Height
734 748 751 731 717 727 735 739 738 728 724 730 728 727 721 725 729 732 737 740 747 750 753 758 763 768 773 782 789 795 799 803 807 809 811 812 812 812 813 814 815 817 818 818
740 752 729 717 722 734 735 739 734 726 720 728 724 728 717 721 726 724 730 735 739 745 747 753 760 763 769 777 785 792 797 801 804 806 808 808 809 808 810 812 813 815 816 816
745 729 715 725 732 741 734 733 739 744 723 716 726 768 725 716 719 720 719 723 728 735 741 749 755 759 765 771 781 788 794 798 801 804 806 808 809 809 810 810 810 810 814 815
733 719 726 734 741 734 744 719 731 736 737 771 711 758 738 721 723 723 721 721 723 727 734 740 749 755 761 768 775 783 790 795 798 801 802 805 806 806 804 805 808 810 812 814
737 732 734 738 735 722 737 722 732 734 737 722 726 732 742 714 722 721 717 714 716 719 728 733 741 750 756 765 771 777 784 789 793 797 799 801 804 802 803 805 806 811 812 813
729 708 723 725 719 722 718 735 732 727 724 742 727 734 723 717 715 706 704 707 710 715 719 728 735 742 750 757 764 770 777 784 789 793 797 798 800 802 800 803 805 807 807 810
730 729 716 718 732 715 723 744 759 755 745 750 714 736 716 700 696 696 699 704 704 709 715 721 729 736 743 750 757 764 771 779 785 788 791 794 797 800 801 803 804 804 805 807
735 744 718 712 728 725 734 734 750 775 756 742 714 743 718 692 688 690 691 694 701 707 710 715 723 731 738 745 752 758 765 774 780 784 787 791 794 797 800 801 800 800 802 805
734 736 704 703 707 719 728 737 713 736 724 737 718 711 693 689 693 695 695 698 702 705 708 715 718 725 733 741 747 753 760 768 774 779 783 787 790 792 794 796 798 800 802 803
721 745 711 708 710 709 720 705 738 731 774 776 732 730 723 712 710 702 699 698 699 701 704 708 717 720 727 734 742 749 755 761 768 773 778 782 785 787 790 793 795 797 798 801
716 726 726 714 728 725 725 733 724 716 720 746 755 733 694 708 706 705 697 694 694 698 701 704 712 716 723 729 735 742 750 756 762 768 772 776 779 783 786 789 792 794 796 799
714 719 734 722 696 693 700 712 717 738 750 732 730 731 690 698 699 700 701 696 693 695 699 702 706 714 718 724 730 736 742 749 756 762 767 771 775 778 781 783 786 790 792 795
709 727 745 729 707 701 720 709 703 702 704 728 734 728 693 697 704 706 708 703 702 701 701 700 702 708 715 719 724 731 737 742 750 758 762 766 769 772 773 775 776 780 784 788
721 720 724 734 718 701 713 716 709 712 725 723 720 714 708 709 709 708 708 707 706 704 704 705 705 705 711 718 721 726 732 739 745 751 756 758 760 760 761 764 771 778 784 788
718 729 714 705 699 705 709 704 707 718 711 721 708 704 711 708 707 708 706 705 705 703 700 699 704 707 711 716 722 726 730 734 740 745 748 749 752 757 763 767 772 777 781 784
707 730 717 740 707 707 715 704 701 700 705 703 701 712 685 694 700 708 708 709 710 707 702 695 697 702 707 713 717 721 725 729 733 736 739 746 751 754 758 763 770 776 782 787
718 719 726 740 724 710 726 706 700 697 695 700 720 703 696 706 711 712 712 711 712 708 704 703 697 694 698 702 711 716 721 725 727 731 736 739 742 748 755 761 766 772 778 786
725 723 720 795 797 757 702 680 679 693 690 690 693 698 707 709 704 711 714 715 714 709 705 702 698 696 694 695 698 709 717 722 725 727 732 737 743 748 753 758 767 770 765 769
707 721 730 741 742 768 739 699 700 707 710 690 696 699 705 706 703 718 716 715 714 710 706 702 698 697 697 696 697 705 713 719 723 728 733 738 743 749 759 772 782 775 781 780
739 711 731 736 747 768 731 728 699 685 724 699 700 705 713 706 720 724 717 715 713 712 710 706 703 698 700 702 701 707 712 718 722 726 730 736 743 751 759 765 758 766 777 775
793 770 742 738 735 718 715 718 706 770 745 715 710 716 716 718 720 718 716 716 713 714 713 710 709 708 708 708 708 712 714 718 723 728 734 741 745 747 747 750 748 762 774 770
788 801 798 730 731 746 706 708 725 732 718 724 719 716 721 720 719 717 717 716 714 715 714 711 715 714 713 713 714 716 719 725 729 733 739 745 747 749 752 754 759 759 766 777
745 748 744 747 756 758 717 718 716 715 723 723 722 717 718 718 718 717 716 716 715 716 716 716 714 721 721 721 720 723 726 730 734 738 743 747 750 750 751 752 756 753 761 777
770 756 745 733 739 747 718 717 717 717 719 718 718 718 717 718 716 715 714 715 714 714 716 717 718 721 725 725 725 727 730 732 736 739 743 746 749 751 754 757 758 759 759 771
749 768 764 732 723 719 716 721 721 722 721 722 721 720 719 718 717 714 714 714 715 714 718 719 720 722 724 726 728 729 732 734 737 740 742 744 747 752 753 756 757 759 760 769
731 757 757 732 739 738 729 721 723 725 725 723 722 721 719 718 717 716 714 712 714 717 718 721 723 724 725 726 728 731 733 736 738 739 740 741 745 750 752 755 758 759 763 767
Wind_Speed
16 13 14 15 7 9 6 8 9 8 4 6 3 5 4 13 15 15 14 17 18 19 18 24 21 22 19 21 17 17 16 15 14 13 12 11 10 9 8 7 5 6 7 8
16 14 16 14 7 8 10 12 4 2 2 7 4 6 10 12 15 15 16 16 18 19 20 21 24 23 24 21 20 18 17 17 17 14 13 11 9 8 7 6 4 5 6 6
18 16 10 16 9 13 13 13 9 9 11 7 6 5 7 14 13 15 16 18 18 19 21 20 23 25 24 24 22 20 19 19 19 16 13 11 7 5 6 8 10 8 3 3
17 15 17 10 13 14 16 7 5 10 14 5 9 1 10 11 13 16 17 17 18 18 19 21 23 26 25 23 24 21 20 19 19 18 16 14 12 12 12 9 7 3 1 1
14 13 15 17 17 12 11 9 10 11 14 20 5 9 13 10 13 15 18 20 19 19 19 20 21 28 27 26 24 23 21 21 20 21 21 16 16 12 8 8 6 2 3 2
16 8 9 13 15 18 16 8 14 15 16 12 9 6 2 6 6 2 16 18 20 19 20 19 25 27 28 28 27 26 23 22 21 21 20 18 14 15 10 10 7 8 6 6
17 18 15 12 12 18 16 14 12 10 12 3 10 7 5 7 7 2 9 15 18 18 18 19 19 19 25 28 28 26 23 20 20 22 21 21 20 15 12 8 10 6 7 10
12 15 21 17 15 11 16 17 12 8 8 8 2 1 4 10 5 3 3 12 14 17 17 17 19 21 23 24 27 25 24 22 21 22 23 21 20 17 16 14 11 9 8 7
12 12 6 9 13 14 16 14 13 16 14 10 1 8 5 6 9 6 5 6 11 16 16 17 16 21 23 24 26 26 24 23 22 23 22 21 20 20 17 15 14 11 7 7
18 10 6 4 9 15 18 17 10 10 10 10 2 6 10 11 9 5 2 5 8 11 16 16 16 20 23 24 25 26 26 24 23 23 22 21 21 20 18 17 16 13 11 11
14 14 12 7 11 15 12 15 13 16 10 7 4 7 12 12 8 5 4 3 8 9 13 15 15 19 22 22 24 26 26 25 24 24 24 22 21 20 19 19 17 16 15 15
15 14 14 17 10 13 14 12 19 13 14 9 10 2 11 10 11 6 3 3 6 9 9 12 14 18 18 21 21 22 25 25 25 24 23 22 20 20 19 20 19 18 19 19
7 9 13 15 16 11 9 16 12 16 18 15 10 6 12 11 11 7 5 2 3 3 4 9 13 14 18 20 22 21 19 25 24 23 23 22 22 22 22 23 24 25 25 24
6 14 16 12 9 9 17 16 17 18 13 10 11 10 13 10 11 9 5 2 4 6 8 8 8 10 16 16 15 18 21 21 23 24 24 25 26 27 28 28 26 24 24 23
9 16 16 15 16 7 16 13 18 14 17 18 5 3 17 10 11 8 9 8 5 4 8 13 13 10 11 16 18 17 21 23 24 24 25 28 28 25 22 20 23 23 24 25
15 16 13 11 18 11 17 16 17 18 16 16 8 2 13 11 9 8 7 9 9 8 7 6 11 13 13 19 20 21 23 24 27 29 28 24 22 22 22 20 20 19 17 20
18 13 12 11 22 17 15 16 18 14 13 8 12 5 10 10 9 9 9 10 10 11 9 7 11 8 15 18 17 21 24 24 25 25 24 24 25 22 20 20 20 22 5 8
16 16 9 4 20 9 4 10 8 11 11 8 10 13 9 5 10 12 10 10 11 13 13 9 7 10 11 13 17 17 20 22 23 23 22 22 21 20 23 28 24 13 23 21
15 16 14 12 7 8 24 7 5 5 3 8 7 9 7 2 8 11 8 9 9 11 12 13 12 8 7 7 8 16 18 20 20 20 19 19 17 23 28 18 7 3 8 13
25 12 11 15 15 4 21 10 25 2 8 7 8 7 3 4 7 9 7 8 9 11 13 14 14 5 2 3 6 13 15 17 17 19 20 25 26 29 24 13 8 22 19 22
11 10 10 14 13 14 9 2 3 10 6 7 7 8 7 9 7 4 5 7 8 9 11 11 12 10 5 2 7 11 14 14 16 22 24 28 31 31 25 14 14 18 21 29
7 5 8 16 11 8 7 7 6 5 2 6 7 5 3 3 4 5 5 7 7 7 8 10 10 10 7 3 5 7 9 13 17 20 22 22 20 8 3 8 16 22 22 19
5 7 6 7 3 14 12 8 7 7 6 4 4 5 5 7 5 5 6 6 7 5 4 7 6 7 7 4 4 7 12 14 17 18 18 14 8 10 11 15 17 21 22 18
5 16 15 10 23 25 4 2 6 8 8 6 7 7 7 8 9 8 8 7 6 4 3 1 2 4 4 3 4 9 14 16 18 14 15 6 5 8 14 15 15 16 22 20
6 6 20 14 10 5 7 2 5 8 7 5 6 7 7 9 10 11 9 6 6 2 1 2 3 2 5 5 6 9 12 14 15 14 12 11 9 13 15 12 13 17 21 21
8 9 14 6 10 13 2 7 7 9 10 10 9 9 8 9 10 10 12 10 5 8 5 3 3 4 4 5 7 10 13 15 14 12 10 10 8 13 13 14 12 15 21 18
Wind_Direction
206 237 242 255 294 13 310 298 297 47 38 297 271 337 168 172 194 184 182 185 189 197 191 182 197 180 180 166 178 183 189 184 189 196 199 203 212 207 224 233 234 247 258 266
243 230 257 269 315 295 288 281 14 329 99 264 342 316 180 182 200 210 185 190 190 195 191 197 193 193 187 182 184 187 195 191 195 197 207 206 211 207 207 212 205 234 253 262
233 244 219 242 259 253 247 277 16 323 298 243 273 284 139 174 198 205 201 196 194 190 195 190 193 202 194 184 192 191 198 198 202 212 205 205 212 247 212 224 228 189 232 267
251 239 267 240 246 255 269 44 299 311 303 156 247 213 14 152 183 203 209 204 197 192 198 186 197 199 198 197 189 198 197 204 207 210 213 208 212 215 214 204 139 101 190 202
242 230 244 245 244 241 281 2 302 302 293 282 133 288 191 143 187 193 212 204 209 191 188 199 194 196 201 195 200 194 197 201 211 206 215 207 223 220 227 226 131 173 168 175
256 299 266 266 239 247 267 286 263 250 250 263 75 346 293 114 34 211 185 214 201 202 193 196 197 200 200 196 198 200 186 195 205 209 215 221 215 234 235 203 201 232 177 172
226 236 225 243 258 238 221 244 261 247 233 234 72 297 321 33 24 360 168 191 202 201 201 191 194 200 199 200 197 201 185 195 203 207 209 213 216 212 225 208 215 253 197 164
245 217 211 206 234 244 206 243 264 298 297 358 149 275 62 64 73 88 121 169 192 197 201 207 194 199 196 202 200 203 191 194 202 206 209 210 209 211 217 213 234 215 223 179
269 238 98 217 212 234 250 241 266 282 287 256 281 58 267 102 84 117 153 150 182 198 205 197 206 201 198 199 203 203 202 195 203 204 207 207 207 209 212 224 213 222 221 159
261 271 246 216 225 244 239 263 238 220 262 273 241 257 101 76 38 93 171 160 175 195 198 194 206 203 204 199 204 207 206 208 203 205 202 205 207 209 211 210 214 215 200 185
251 260 266 169 222 239 201 244 249 279 287 299 262 86 102 101 87 13 105 100 140 170 193 197 192 206 200 206 202 205 207 207 200 203 198 200 203 205 207 210 211 210 195 185
231 262 238 236 246 212 267 231 229 238 229 267 299 1 91 82 75 47 58 60 75 147 180 200 189 201 203 202 210 206 198 204 198 199 197 196 200 201 202 205 206 203 195 189
291 228 252 255 232 180 240 255 260 246 247 255 268 142 97 97 87 75 47 347 173 202 188 203 194 195 203 210 206 202 202 192 191 198 198 198 198 200 203 203 204 197 193 188
306 264 256 261 252 318 206 217 242 245 256 250 240 137 122 86 68 49 39 42 268 237 207 213 230 212 195 205 213 199 200 199 191 198 200 200 201 203 205 202 200 196 194 190
245 260 273 276 290 297 282 257 213 238 256 252 331 203 102 74 58 44 34 21 6 246 242 214 211 212 205 188 205 206 200 201 201 198 202 206 205 206 207 199 195 193 193 193
239 253 275 307 274 256 256 255 266 226 232 254 284 291 67 70 64 41 24 26 20 2 326 287 195 206 205 209 205 205 201 199 199 198 205 203 201 200 199 192 186 187 196 211
288 284 295 293 305 233 235 245 233 241 225 238 243 64 49 52 69 54 39 45 25 15 348 300 301 236 217 206 203 211 202 198 197 196 198 195 193 191 187 172 165 141 1 61
256 269 261 139 284 276 272 4 216 235 211 219 284 78 63 33 95 71 41 37 17 9 4 347 294 273 260 232 188 194 191 194 191 188 190 186 186 183 156 149 133 115 145 191
224 254 272 287 200 193 298 202 201 224 276 262 242 78 68 347 148 107 64 39 23 7 8 1 343 319 295 302 192 172 180 187 190 188 186 180 158 128 135 122 31 354 227 192
325 261 240 252 283 203 270 6 1 1 209 40 15 61 347 288 255 81 47 30 28 7 16 14 1 6 62 253 146 167 177 186 188 183 155 148 151 149 147 173 203 270 217 213
293 328 243 219 256 271 106 231 317 311 49 25 27 54 13 23 23 46 28 18 8 0 13 33 29 26 35 194 165 181 171 175 138 146 148 154 160 172 185 189 159 160 151 144
165 60 318 304 225 240 17 175 204 97 96 14 1 55 22 6 354 354 355 351 8 345 7 20 49 38 43 67 161 166 136 138 154 154 156 166 179 197 230 148 136 131 132 145
225 300 197 279 58 319 346 50 68 59 84 28 10 345 327 304 301 315 303 309 327 350 347 356 33 58 52 46 128 138 137 158 161 163 168 162 216 230 195 160 159 141 145 165
8 323 298 287 125 197 154 76 52 44 42 8 30 353 335 310 297 290 297 304 319 345 277 8 7 71 93 97 121 149 159 161 164 172 181 188 183 173 174 167 161 158 154 175
106 54 308 298 283 198 156 111 25 23 350 346 326 334 337 320 305 285 268 260 279 310 234 191 178 152 132 144 142 149 160 166 170 183 202 214 196 178 170 171 176 175 174 178
196 165 240 303 28 338 18 345 313 303 300 295 284 293 309 305 297 290 276 263 259 284 164 199 192 180 161 167 160 158 172 174 188 201 194 192 192 181 172 163 157 174 184 202